Hourly Weather Roundup
Issued by NWS Central Illinois

Home | Current Version | Previous Version | Text Only | Print | Product List | Glossary On
Versions: 1 2 3 4 5 6 7 8 9 10 11 12 13 14 15 16 17 18 19 20 21 22 23 24 25 26 27 28 29 30 31 32 33 34 35 36 37 38 39 40 41 42 43 44 45 46 47 48 49 50
000
NZUS43 KILX 220910
HWRILX

Area Weather Roundup
National Weather Service Lincoln IL
400 AM CDT FRI SEP 22 2017

NOTE:  "FAIR" indicates few or no clouds below 12,000 feet, with
       no sigificant weather and/or obstructions to visibility.


CITY           SKY/WX    TMP DP  RH WIND       PRES   REMARKS
Bloomington    CLEAR     70  66  87 S8        30.06S
Champaign      PTCLDY    68  64  87 S3        30.06R
Danville       CLOUDY    65  65  99 CALM      30.05S
Decatur        CLEAR     71  65  81 S5        30.05R
Effingham      CLEAR     68  67  98 CALM      30.07R
Flora          CLEAR     68  66  93 CALM      30.06R
Galesburg      CLEAR     70  66  89 SE3       30.03R
Jacksonville   CLEAR     73  67  82 SE7       30.03R
Lacon          CLEAR     72  68  87 S5        30.03R FOG
Lawrenceville  CLEAR     70  69  97 CALM      30.06R
Litchfield     CLEAR     70  67  91 S5        30.04S
$$


CITY           SKY/WX    TMP DP  RH WIND       PRES   REMARKS
Lincoln        CLEAR     69  67  93 CALM      30.04S
Macomb         CLEAR     70  68  93 S6        30.03S
Mattoon        CLEAR     72  69  90 S3        30.05S
Mt Carmel AP   CLEAR     67  66  95 CALM      30.06R
Olney-Noble AP CLEAR     69  66  93 CALM      30.06S
Paris AP       CLOUDY    70  67  92 CALM      30.07S
Peoria         CLEAR     73  68  84 S5        30.03R
Pontiac        PTCLDY    66  65  97 SE7       30.05R FOG
Rantoul        CLOUDY    70  68  92 CALM      30.06S
Robinson       PTCLDY    66  66  99 CALM      30.07R
Springfield    CLEAR     74  68  81 S7        30.04R
Taylorville    CLEAR     69  66  89 CALM      30.05R
$$

...REGIONAL REPORTS...


CITY           SKY/WX    TMP DP  RH WIND       PRES   REMARKS
Chicago O`Hare CLOUDY    76  68  76 S6        30.04R
Kankakee       CLOUDY    67  66  95 CALM      30.07R
Moline         CLEAR     75  67  76 S5        29.99S
Mount Sterling CLEAR     69  67  93 S5        30.02R
Mount Vernon     N/A     64  64 100 CALM      30.05S
Pittsfield     CLEAR     71  68  91 S3        30.04R
Quincy         CLEAR     74  68  81 S7        30.01R
Rockford       CLEAR     69  67  93 S5        30.03S
$$


CITY           SKY/WX    TMP DP  RH WIND       PRES   REMARKS
Burlington     CLEAR     74  69  85 S6        29.99S
Cedar Rapids   CLEAR     74  69  85 S8        29.97R
Des Moines     PTCLDY    78  70  76 S9        29.89S HX  80
Kirksville     CLEAR     71  67  87 S5        30.00R
Ottumwa        PTCLDY    75  69  81 S8        29.95S
St Louis       CLEAR     77  69  76 S6        30.03R
$$


CITY           SKY/WX    TMP DP  RH WIND       PRES   REMARKS
Terre Haute    MOCLDY    71  67  87 CALM      30.07R
Evansville     CLEAR     70  68  93 CALM      30.06R FOG
Indianapolis   CLEAR     74  68  81 NE3       30.08R
Lafayette      PTCLDY    69  68  96 CALM      30.06R
Madison        CLEAR     70  67  90 S7        30.00R
Milwaukee      PTCLDY    71  69  93 CALM      30.03R FOG
$$





USA.gov is the U.S. government's official web portal to all federal, state and local government web resources and services.